WXM80 ListenWXM80 Stop

You find our weather info also at:

UK Metoffice

WeatherCloud

Weather Underground

Northeastern Weather Network

AWEKAS

Citizen Weather Observer Program (CWOP)

HAMweather, WeatherForYou, PWS Weather


Weather Underground History page Text

Daily Summary for September 24, 2016 Units:  English    Metric   Both
« Previous Day
Next Day »
Daily Weekly Monthly Yearly Custom
  High: Low: Average:
Temperature: 72.7 °F 58.7 °F 64.7 °F
Dew Point: 66.6 °F 45.1 °F 54.4 °F
Humidity: 95 % 47 % 71 %
Wind Speed: 10.0 mph 0.0 mph 4.4 mph
Wind Gust: 17.0 mph - -
Wind:- - East
Pressure: 30.11 in 29.95 in -
Precipitation: 0.05 in    
Historical Graphs
 
 
Tabular Data for September 24, 2016
Time Temperature Dew Point Pressure Wind Wind Speed Wind Gust Humidity Rainfall Rate (Hourly)
00:00 72.1 °F 66.6 °F 29.96 in East 7.3 mph 11.5 mph 83 % 0.00 in
00:05 72.1 °F 65.9 °F 29.95 in NE 7.3 mph 15.0 mph 81 % 0.00 in
00:10 72.0 °F 65.5 °F 29.95 in ENE 8.9 mph 11.5 mph 80 % 0.00 in
00:15 71.7 °F 65.2 °F 29.96 in ENE 8.0 mph 11.5 mph 80 % 0.00 in
00:20 71.3 °F 64.4 °F 29.95 in NE 10.0 mph 12.0 mph 79 % 0.00 in
00:26 70.9 °F 63.7 °F 29.96 in ENE 7.0 mph 16.0 mph 78 % 0.00 in
00:31 70.5 °F 63.7 °F 29.96 in ENE 6.8 mph 15.0 mph 79 % 0.00 in
00:36 70.2 °F 63.0 °F 29.97 in ENE 8.0 mph 14.0 mph 78 % 0.00 in
00:41 69.9 °F 62.7 °F 29.97 in ENE 8.0 mph 13.0 mph 78 % 0.00 in
00:46 69.6 °F 62.4 °F 29.97 in ENE 8.0 mph 14.0 mph 78 % 0.00 in
00:51 69.3 °F 62.5 °F 29.97 in ENE 7.0 mph 15.0 mph 79 % 0.00 in
00:56 69.1 °F 62.3 °F 29.97 in ENE 6.0 mph 15.0 mph 79 % 0.00 in
01:01 68.8 °F 62.0 °F 29.97 in NE 4.9 mph 10.4 mph 79 % 0.00 in
01:06 68.6 °F 61.8 °F 29.98 in ENE 6.0 mph 12.0 mph 79 % 0.00 in
01:11 68.4 °F 62.0 °F 29.98 in NE 6.0 mph 10.0 mph 80 % 0.00 in
01:16 68.2 °F 61.8 °F 29.98 in NE 4.5 mph 10.4 mph 80 % 0.00 in
01:21 68.1 °F 61.7 °F 29.99 in NE 6.0 mph 16.0 mph 80 % 0.00 in
01:26 67.9 °F 61.9 °F 29.99 in NE 7.0 mph 13.0 mph 81 % 0.00 in
01:31 67.7 °F 61.7 °F 29.99 in NNE 8.0 mph 16.0 mph 81 % 0.00 in
01:36 67.4 °F 61.0 °F 30.00 in NE 6.0 mph 14.0 mph 80 % 0.00 in
01:41 67.2 °F 61.2 °F 30.01 in NE 8.0 mph 14.0 mph 81 % 0.00 in
01:46 66.8 °F 60.4 °F 30.02 in NNE 9.3 mph 16.1 mph 80 % 0.00 in
01:51 66.5 °F 60.1 °F 30.02 in NNE 6.0 mph 14.0 mph 80 % 0.00 in
01:56 66.2 °F 59.8 °F 30.03 in NNE 7.0 mph 14.0 mph 80 % 0.00 in
02:01 65.8 °F 59.8 °F 30.03 in NNE 5.1 mph 9.2 mph 81 % 0.00 in
02:06 65.6 °F 59.6 °F 30.04 in NNE 7.0 mph 15.0 mph 81 % 0.00 in
02:11 65.2 °F 59.9 °F 30.03 in NNE 8.0 mph 14.0 mph 83 % 0.00 in
02:16 64.5 °F 59.9 °F 30.04 in ENE 8.5 mph 12.7 mph 85 % 0.01 in
02:21 63.7 °F 59.5 °F 30.04 in NE 10.0 mph 17.0 mph 86 % 0.00 in
02:26 63.2 °F 59.6 °F 30.03 in NE 3.0 mph 12.0 mph 88 % 0.00 in
02:31 62.9 °F 59.3 °F 30.03 in NNE 5.5 mph 12.7 mph 88 % 0.02 in
02:36 62.6 °F 59.0 °F 30.03 in NE 5.0 mph 12.0 mph 88 % 0.00 in
02:41 62.4 °F 59.1 °F 30.03 in NE 5.0 mph 12.0 mph 89 % 0.00 in
02:46 62.2 °F 58.9 °F 30.03 in ENE 3.4 mph 6.9 mph 89 % 0.02 in
02:51 61.9 °F 58.6 °F 30.03 in NE 7.0 mph 14.0 mph 89 % 0.00 in
02:56 61.7 °F 58.4 °F 30.03 in ENE 7.0 mph 17.0 mph 89 % 0.00 in
03:01 61.6 °F 58.3 °F 30.02 in ENE 6.1 mph 11.5 mph 89 % 0.02 in
03:06 61.4 °F 58.5 °F 30.03 in ENE 5.0 mph 14.0 mph 90 % 0.00 in
03:11 61.4 °F 58.4 °F 30.03 in NE 7.0 mph 12.0 mph 90 % 0.00 in
03:16 61.3 °F 58.7 °F 30.03 in NE 6.0 mph 12.0 mph 91 % 0.00 in
03:21 61.2 °F 58.6 °F 30.03 in NE 6.0 mph 12.0 mph 91 % 0.00 in
03:26 61.0 °F 58.4 °F 30.03 in NE 6.0 mph 15.0 mph 91 % 0.00 in
03:31 60.9 °F 57.9 °F 30.02 in East 5.9 mph 10.4 mph 90 % 0.01 in
03:36 60.8 °F 57.8 °F 30.02 in NE 7.0 mph 15.0 mph 90 % 0.00 in
03:41 60.7 °F 57.7 °F 30.02 in ENE 6.0 mph 15.0 mph 90 % 0.00 in
03:46 60.6 °F 58.0 °F 30.02 in East 6.2 mph 11.5 mph 91 % 0.01 in
03:51 60.5 °F 57.9 °F 30.02 in NE 6.0 mph 12.0 mph 91 % 0.00 in
03:56 60.4 °F 57.8 °F 30.02 in ENE 5.0 mph 13.0 mph 91 % 0.00 in
04:01 60.4 °F 58.1 °F 30.02 in NE 4.0 mph 10.4 mph 92 % 0.02 in
04:06 60.4 °F 58.1 °F 30.02 in NE 7.0 mph 15.0 mph 92 % 0.00 in
04:11 60.4 °F 58.1 °F 30.02 in ENE 5.0 mph 14.0 mph 92 % 0.00 in
04:16 60.4 °F 58.1 °F 30.02 in ENE 6.0 mph 10.0 mph 92 % 0.00 in
04:21 60.4 °F 58.1 °F 30.02 in ENE 6.0 mph 12.0 mph 92 % 0.00 in
04:26 60.3 °F 58.0 °F 30.02 in ENE 6.0 mph 13.0 mph 92 % 0.00 in
04:31 60.3 °F 58.0 °F 30.02 in NE 5.0 mph 13.0 mph 92 % 0.00 in
04:36 60.3 °F 58.0 °F 30.02 in NE 6.0 mph 10.0 mph 92 % 0.00 in
04:41 60.3 °F 58.0 °F 30.02 in NE 7.0 mph 16.0 mph 92 % 0.00 in
04:46 60.3 °F 58.3 °F 30.02 in NE 5.0 mph 10.0 mph 93 % 0.00 in
04:56 60.3 °F 58.3 °F 30.03 in ENE 7.0 mph 12.0 mph 93 % 0.00 in
05:01 60.2 °F 57.9 °F 30.02 in NE 6.0 mph 11.0 mph 92 % 0.00 in
05:06 60.3 °F 58.3 °F 30.03 in ENE 6.0 mph 12.0 mph 93 % 0.00 in
05:11 60.2 °F 57.9 °F 30.02 in ENE 5.0 mph 12.0 mph 92 % 0.00 in
05:16 60.3 °F 58.3 °F 30.02 in NE 5.4 mph 8.1 mph 93 % 0.00 in
05:21 60.2 °F 58.2 °F 30.02 in NE 5.0 mph 12.0 mph 93 % 0.00 in
05:26 60.2 °F 58.2 °F 30.03 in NE 3.0 mph 8.0 mph 93 % 0.00 in
05:31 60.3 °F 58.2 °F 30.03 in NE 5.0 mph 13.0 mph 93 % 0.00 in
05:36 60.3 °F 58.3 °F 30.03 in NE 3.0 mph 10.0 mph 93 % 0.00 in
05:41 60.3 °F 58.3 °F 30.02 in ENE 6.0 mph 14.0 mph 93 % 0.00 in
05:46 60.3 °F 58.3 °F 30.02 in ENE 7.0 mph 15.0 mph 93 % 0.00 in
05:51 60.3 °F 58.3 °F 30.03 in ENE 7.0 mph 12.0 mph 93 % 0.00 in
05:56 60.3 °F 58.3 °F 30.03 in ENE 7.0 mph 12.0 mph 93 % 0.00 in
06:01 60.4 °F 58.4 °F 30.04 in ENE 5.6 mph 10.4 mph 93 % 0.00 in
06:06 60.4 °F 58.4 °F 30.04 in ENE 3.0 mph 12.0 mph 93 % 0.00 in
06:11 60.4 °F 58.4 °F 30.04 in NE 7.0 mph 15.0 mph 93 % 0.00 in
06:16 60.3 °F 58.3 °F 30.04 in NNE 7.0 mph 13.0 mph 93 % 0.00 in
06:21 60.1 °F 58.1 °F 30.05 in NE 6.4 mph 11.5 mph 93 % 0.00 in
06:26 59.9 °F 57.9 °F 30.05 in NNE 6.0 mph 15.0 mph 93 % 0.00 in
06:31 59.8 °F 57.8 °F 30.05 in NNE 6.0 mph 12.0 mph 93 % 0.00 in
06:36 59.6 °F 57.9 °F 30.06 in NNE 5.3 mph 13.0 mph 94 % 0.00 in
06:41 59.4 °F 57.7 °F 30.06 in NE 10.0 mph 16.0 mph 94 % 0.00 in
06:46 59.2 °F 57.5 °F 30.06 in NNE 8.0 mph 16.0 mph 94 % 0.00 in
06:51 59.0 °F 57.3 °F 30.06 in ENE 6.5 mph 11.5 mph 94 % 0.00 in
06:56 59.0 °F 57.3 °F 30.06 in NE 5.8 mph 11.5 mph 94 % 0.00 in
07:01 59.0 °F 57.6 °F 30.06 in NE 5.2 mph 10.4 mph 95 % 0.00 in
07:06 58.9 °F 57.5 °F 30.06 in NE 4.9 mph 9.2 mph 95 % 0.01 in
07:11 58.9 °F 57.5 °F 30.07 in North 5.0 mph 8.1 mph 95 % 0.01 in
07:16 58.9 °F 57.5 °F 30.07 in North 4.7 mph 9.0 mph 95 % 0.01 in
07:21 58.8 °F 57.4 °F 30.07 in NE 4.1 mph 6.9 mph 95 % 0.01 in
07:26 58.8 °F 57.4 °F 30.07 in NE 4.3 mph 8.1 mph 95 % 0.01 in
07:31 58.8 °F 57.4 °F 30.07 in NE 3.9 mph 7.0 mph 95 % 0.01 in
07:36 58.8 °F 57.4 °F 30.07 in NE 4.2 mph 9.2 mph 95 % 0.01 in
07:41 58.9 °F 57.5 °F 30.07 in ENE 4.9 mph 10.4 mph 95 % 0.01 in
07:46 59.0 °F 57.6 °F 30.07 in NE 2.7 mph 9.2 mph 95 % 0.01 in
07:52 59.0 °F 57.6 °F 30.07 in East 4.2 mph 11.5 mph 95 % 0.01 in
07:57 59.1 °F 57.7 °F 30.08 in NNE 5.9 mph 11.5 mph 95 % 0.01 in
08:02 59.2 °F 57.8 °F 30.08 in ENE 3.7 mph 10.0 mph 95 % 0.01 in
08:07 59.2 °F 57.8 °F 30.09 in NE 6.9 mph 11.5 mph 95 % 0.00 in
08:12 59.2 °F 57.8 °F 30.09 in NNW 7.3 mph 11.5 mph 95 % 0.00 in
08:17 59.1 °F 57.7 °F 30.09 in North 6.6 mph 11.5 mph 95 % 0.00 in
08:22 59.0 °F 57.3 °F 30.09 in NNE 3.1 mph 6.9 mph 94 % 0.00 in
08:27 58.9 °F 57.2 °F 30.09 in NNE 4.6 mph 6.9 mph 94 % 0.00 in
08:32 58.8 °F 57.1 °F 30.09 in ENE 5.1 mph 13.8 mph 94 % 0.00 in
08:37 58.8 °F 57.1 °F 30.09 in NNE 4.5 mph 8.1 mph 94 % 0.00 in
08:43 58.8 °F 57.1 °F 30.09 in NNE 7.9 mph 11.5 mph 94 % 0.00 in
08:48 58.7 °F 57.0 °F 30.09 in NNE 4.0 mph 9.2 mph 94 % 0.00 in
08:53 58.8 °F 57.1 °F 30.09 in NNE 8.2 mph 11.5 mph 94 % 0.00 in
08:58 58.8 °F 57.1 °F 30.09 in NNE 5.5 mph 10.0 mph 94 % 0.00 in
09:03 58.8 °F 56.8 °F 30.09 in ENE 6.0 mph 11.5 mph 93 % 0.00 in
09:08 58.7 °F 56.7 °F 30.09 in NNE 5.2 mph 8.0 mph 93 % 0.00 in
09:13 58.8 °F 56.8 °F 30.09 in NE 4.1 mph 8.0 mph 93 % 0.00 in
09:18 58.8 °F 56.8 °F 30.09 in ENE 4.9 mph 10.4 mph 93 % 0.00 in
09:23 58.9 °F 56.6 °F 30.09 in NNW 6.7 mph 11.0 mph 92 % 0.00 in
09:28 59.0 °F 57.0 °F 30.09 in NE 5.1 mph 9.2 mph 93 % 0.00 in
09:34 59.1 °F 56.8 °F 30.09 in North 5.6 mph 9.2 mph 92 % 0.00 in
09:39 59.2 °F 56.9 °F 30.09 in NE 4.3 mph 8.1 mph 92 % 0.00 in
09:44 59.3 °F 56.7 °F 30.09 in NNE 7.8 mph 11.5 mph 91 % 0.00 in
09:49 59.3 °F 56.4 °F 30.10 in NE 2.9 mph 5.8 mph 90 % 0.00 in
09:54 59.4 °F 56.5 °F 30.10 in East 4.2 mph 8.1 mph 90 % 0.00 in
09:59 59.5 °F 56.3 °F 30.10 in ENE 2.4 mph 5.8 mph 89 % 0.00 in
10:04 59.6 °F 56.4 °F 30.10 in NNE 4.3 mph 6.9 mph 89 % 0.00 in
10:09 59.7 °F 56.1 °F 30.10 in NNE 3.3 mph 9.2 mph 88 % 0.00 in
10:14 59.8 °F 55.9 °F 30.10 in NNW 8.6 mph 11.5 mph 87 % 0.00 in
10:19 60.0 °F 56.4 °F 30.10 in North 4.3 mph 8.1 mph 88 % 0.00 in
10:25 60.3 °F 56.4 °F 30.10 in NNE 6.3 mph 10.0 mph 87 % 0.00 in
10:30 60.6 °F 56.4 °F 30.11 in North 3.1 mph 8.1 mph 86 % 0.00 in
10:35 60.8 °F 56.6 °F 30.11 in NE 2.3 mph 6.9 mph 86 % 0.00 in
10:40 61.0 °F 56.5 °F 30.10 in NNE 2.1 mph 5.8 mph 85 % 0.00 in
10:45 61.3 °F 56.8 °F 30.10 in ENE 3.5 mph 6.9 mph 85 % 0.00 in
10:50 61.7 °F 56.8 °F 30.10 in ENE 2.7 mph 7.0 mph 84 % 0.00 in
10:55 62.1 °F 56.5 °F 30.10 in ENE 4.1 mph 9.2 mph 82 % 0.00 in
11:00 62.4 °F 56.8 °F 30.09 in North 5.7 mph 9.2 mph 82 % 0.00 in
11:05 62.9 °F 57.0 °F 30.09 in NNE 2.6 mph 3.5 mph 81 % 0.00 in
11:10 63.4 °F 56.8 °F 30.09 in North 3.7 mph 8.1 mph 79 % 0.00 in
11:16 63.6 °F 56.6 °F 30.09 in NE 3.0 mph 8.0 mph 78 % 0.00 in
11:21 63.7 °F 56.0 °F 30.10 in ENE 2.5 mph 6.9 mph 76 % 0.00 in
11:26 63.8 °F 55.4 °F 30.10 in NNE 4.5 mph 6.9 mph 74 % 0.00 in
11:31 64.0 °F 55.5 °F 30.10 in NNE 3.2 mph 5.8 mph 74 % 0.00 in
11:36 65.0 °F 56.9 °F 30.10 in NE 5.0 mph 8.1 mph 75 % 0.00 in
11:41 66.3 °F 55.4 °F 30.09 in NNE 5.5 mph 8.0 mph 68 % 0.00 in
11:46 66.8 °F 55.5 °F 30.10 in East 3.8 mph 6.9 mph 67 % 0.00 in
11:51 66.7 °F 55.0 °F 30.10 in North 4.2 mph 6.0 mph 66 % 0.00 in
11:56 66.7 °F 54.1 °F 30.10 in NE 1.3 mph 3.5 mph 64 % 0.00 in
12:01 67.2 °F 55.9 °F 30.09 in NE 2.3 mph 6.9 mph 67 % 0.00 in
12:06 67.8 °F 55.6 °F 30.10 in ENE 2.9 mph 8.1 mph 65 % 0.00 in
12:11 68.5 °F 56.7 °F 30.09 in NNE 1.8 mph 3.0 mph 66 % 0.00 in
12:16 69.0 °F 57.2 °F 30.09 in NE 2.4 mph 3.5 mph 66 % 0.00 in
12:22 69.5 °F 55.9 °F 30.09 in NE 0.9 mph 2.3 mph 62 % 0.00 in
12:27 70.0 °F 56.8 °F 30.09 in ENE 0.8 mph 2.3 mph 63 % 0.00 in
12:37 70.9 °F 57.7 °F 30.09 in ENE 0.8 mph 2.3 mph 63 % 0.00 in
12:42 71.1 °F 57.9 °F 30.09 in NE 1.1 mph 3.5 mph 63 % 0.00 in
12:47 71.4 °F 58.6 °F 30.09 in NE 0.5 mph 3.5 mph 64 % 0.00 in
12:52 71.6 °F 57.0 °F 30.08 in ENE 2.2 mph 5.8 mph 60 % 0.00 in
12:57 71.7 °F 58.0 °F 30.08 in East 1.4 mph 2.3 mph 62 % 0.00 in
13:02 71.7 °F 56.6 °F 30.08 in ESE 1.8 mph 2.3 mph 59 % 0.00 in
13:08 71.6 °F 57.0 °F 30.08 in NE 0.7 mph 3.5 mph 60 % 0.00 in
13:13 71.8 °F 57.6 °F 30.08 in East 0.7 mph 2.3 mph 61 % 0.00 in
13:18 72.0 °F 56.9 °F 30.07 in ENE 0.7 mph 3.5 mph 59 % 0.00 in
13:23 71.8 °F 56.2 °F 30.08 in ENE 0.5 mph 2.3 mph 58 % 0.00 in
13:28 71.9 °F 57.3 °F 30.08 in NNE 0.9 mph 4.6 mph 60 % 0.00 in
13:33 71.9 °F 56.3 °F 30.08 in NE 1.0 mph 5.8 mph 58 % 0.00 in
13:38 71.9 °F 57.3 °F 30.08 in ENE 2.7 mph 7.0 mph 60 % 0.00 in
13:43 71.9 °F 56.8 °F 30.07 in NE 0.3 mph 2.3 mph 59 % 0.00 in
13:48 72.0 °F 56.4 °F 30.07 in NE 0.7 mph 3.5 mph 58 % 0.00 in
13:53 72.2 °F 57.1 °F 30.07 in NE 2.1 mph 7.0 mph 59 % 0.00 in
13:58 71.9 °F 56.8 °F 30.07 in North 0.7 mph 3.5 mph 59 % 0.00 in
14:03 72.1 °F 57.0 °F 30.07 in NNE 0.1 mph 1.2 mph 59 % 0.00 in
14:08 72.2 °F 55.6 °F 30.07 in NNE 0.9 mph 2.0 mph 56 % 0.00 in
14:14 72.1 °F 55.0 °F 30.07 in NE 1.8 mph 4.6 mph 55 % 0.00 in
14:19 72.2 °F 55.6 °F 30.07 in ESE 1.0 mph 2.3 mph 56 % 0.00 in
14:24 72.2 °F 55.6 °F 30.06 in ENE 0.4 mph 3.0 mph 56 % 0.00 in
14:29 72.1 °F 53.0 °F 30.06 in SSE 1.5 mph 3.5 mph 51 % 0.00 in
14:34 72.2 °F 55.1 °F 30.05 in NNE 0.2 mph 1.2 mph 55 % 0.00 in
14:39 72.3 °F 54.7 °F 30.05 in NNE 1.9 mph 3.5 mph 54 % 0.00 in
14:44 72.3 °F 53.2 °F 30.05 in NE 0.5 mph 2.3 mph 51 % 0.00 in
14:49 72.4 °F 53.2 °F 30.05 in NE 0.4 mph 1.2 mph 51 % 0.00 in
14:54 72.5 °F 51.1 °F 30.05 in NE 0.5 mph 3.5 mph 47 % 0.00 in
14:59 72.7 °F 53.0 °F 30.05 in North 0.4 mph 1.2 mph 50 % 0.00 in
15:05 72.7 °F 52.4 °F 30.05 in North 1.9 mph 5.0 mph 49 % 0.00 in
15:10 72.6 °F 51.8 °F 30.05 in NE 2.2 mph 4.0 mph 48 % 0.00 in
15:15 72.2 °F 51.4 °F 30.05 in NE 0.3 mph 2.3 mph 48 % 0.00 in
15:20 71.9 °F 52.8 °F 30.05 in ENE 1.5 mph 3.0 mph 51 % 0.00 in
15:25 71.6 °F 50.9 °F 30.05 in NE 2.1 mph 3.5 mph 48 % 0.00 in
15:30 71.4 °F 50.1 °F 30.05 in Calm   2.3 mph 47 % 0.00 in
15:35 71.2 °F 51.6 °F 30.04 in ENE 0.1 mph 1.2 mph 50 % 0.00 in
15:40 70.8 °F 51.2 °F 30.04 in ENE 1.0 mph 2.3 mph 50 % 0.00 in
15:45 70.6 °F 52.1 °F 30.04 in NE 0.9 mph 3.5 mph 52 % 0.00 in
15:50 70.6 °F 52.6 °F 30.04 in North 0.9 mph 3.5 mph 53 % 0.00 in
15:56 70.6 °F 51.6 °F 30.04 in Calm   3.0 mph 51 % 0.00 in
16:01 70.6 °F 52.1 °F 30.04 in WNW 1.8 mph 3.5 mph 52 % 0.00 in
16:06 70.7 °F 52.2 °F 30.04 in WNW 1.2 mph 2.3 mph 52 % 0.00 in
16:11 70.5 °F 51.5 °F 30.04 in NNE 2.1 mph 3.5 mph 51 % 0.00 in
16:16 70.2 °F 50.1 °F 30.04 in NNE 0.1 mph 1.2 mph 49 % 0.00 in
16:21 69.8 °F 52.4 °F 30.04 in NNE 0.5 mph 2.3 mph 54 % 0.00 in
16:26 69.7 °F 51.3 °F 30.04 in NNE 2.4 mph 3.5 mph 52 % 0.00 in
16:31 69.5 °F 51.6 °F 30.04 in NNE 0.6 mph 2.0 mph 53 % 0.00 in
16:36 69.2 °F 50.8 °F 30.04 in North 2.7 mph 3.5 mph 52 % 0.00 in
16:41 69.2 °F 51.3 °F 30.04 in NNW 0.2 mph 3.5 mph 53 % 0.00 in
16:47 69.2 °F 50.8 °F 30.04 in North 2.0 mph 3.5 mph 52 % 0.00 in
16:52 69.0 °F 50.6 °F 30.04 in North 1.2 mph 3.5 mph 52 % 0.00 in
16:57 68.8 °F 51.0 °F 30.04 in NNE 3.1 mph 4.6 mph 53 % 0.00 in
17:02 68.3 °F 50.5 °F 30.04 in NNW 1.9 mph 3.5 mph 53 % 0.00 in
17:07 68.2 °F 51.4 °F 30.04 in NW 0.7 mph 1.2 mph 55 % 0.00 in
17:12 68.1 °F 51.3 °F 30.04 in North 1.5 mph 4.0 mph 55 % 0.00 in
17:17 67.9 °F 51.1 °F 30.04 in NNE 3.5 mph 5.8 mph 55 % 0.00 in
17:22 67.6 °F 51.8 °F 30.05 in ENE 2.2 mph 3.5 mph 57 % 0.00 in
17:27 67.5 °F 51.7 °F 30.05 in ENE 1.5 mph 3.5 mph 57 % 0.00 in
17:32 67.3 °F 52.0 °F 30.05 in NNE 0.2 mph 2.3 mph 58 % 0.00 in
17:38 67.2 °F 52.4 °F 30.05 in ENE 1.8 mph 4.0 mph 59 % 0.00 in
17:43 66.9 °F 47.6 °F 30.05 in North 3.0 mph 5.8 mph 50 % 0.00 in
17:48 66.8 °F 47.0 °F 30.05 in NNE 4.0 mph 10.4 mph 49 % 0.00 in
17:53 66.6 °F 46.8 °F 30.05 in North 5.7 mph 11.0 mph 49 % 0.00 in
17:58 66.6 °F 46.3 °F 30.06 in NNE 6.1 mph 8.1 mph 48 % 0.00 in
18:03 66.5 °F 46.2 °F 30.06 in NNW 6.2 mph 8.1 mph 48 % 0.00 in
18:08 66.4 °F 46.1 °F 30.06 in NE 5.6 mph 10.0 mph 48 % 0.00 in
18:13 66.3 °F 45.5 °F 30.06 in NNW 6.8 mph 9.2 mph 47 % 0.00 in
18:18 66.2 °F 45.9 °F 30.06 in North 3.1 mph 8.1 mph 48 % 0.00 in
18:23 66.1 °F 45.8 °F 30.06 in North 4.3 mph 9.2 mph 48 % 0.00 in
18:29 65.9 °F 45.6 °F 30.06 in North 6.8 mph 11.5 mph 48 % 0.00 in
18:34 65.8 °F 45.6 °F 30.06 in North 2.4 mph 4.0 mph 48 % 0.00 in
18:39 65.7 °F 46.0 °F 30.06 in NNE 1.6 mph 3.5 mph 49 % 0.00 in
18:49 65.5 °F 46.4 °F 30.07 in NNE 4.1 mph 9.2 mph 50 % 0.00 in
18:54 65.3 °F 45.1 °F 30.07 in North 3.4 mph 8.1 mph 48 % 0.00 in
18:59 65.3 °F 46.2 °F 30.07 in NNE 5.7 mph 8.1 mph 50 % 0.00 in
19:04 65.2 °F 45.5 °F 30.07 in NNE 6.1 mph 10.4 mph 49 % 0.00 in
19:09 65.1 °F 46.0 °F 30.07 in North 5.3 mph 8.1 mph 50 % 0.00 in
19:14 65.0 °F 45.9 °F 30.07 in North 5.7 mph 7.0 mph 50 % 0.00 in
19:19 65.0 °F 45.9 °F 30.07 in North 6.1 mph 8.1 mph 50 % 0.00 in
19:25 64.9 °F 46.3 °F 30.07 in NNE 3.4 mph 11.5 mph 51 % 0.00 in
19:30 64.9 °F 45.8 °F 30.07 in NNE 5.1 mph 9.2 mph 50 % 0.00 in
19:35 64.9 °F 45.8 °F 30.07 in NNE 3.9 mph 8.1 mph 50 % 0.00 in
19:40 64.9 °F 46.3 °F 30.07 in NE 5.1 mph 9.2 mph 51 % 0.00 in
19:45 64.8 °F 46.2 °F 30.08 in North 4.2 mph 8.1 mph 51 % 0.00 in
19:50 64.8 °F 46.8 °F 30.08 in North 3.9 mph 8.1 mph 52 % 0.00 in
19:55 64.7 °F 46.7 °F 30.08 in North 4.6 mph 6.9 mph 52 % 0.00 in
20:00 64.6 °F 46.6 °F 30.08 in NE 5.1 mph 6.0 mph 52 % 0.00 in
20:05 64.6 °F 46.6 °F 30.08 in North 4.8 mph 6.9 mph 52 % 0.00 in
20:10 64.6 °F 46.6 °F 30.08 in NE 4.9 mph 6.0 mph 52 % 0.00 in
20:16 64.6 °F 46.1 °F 30.08 in North 4.6 mph 8.1 mph 51 % 0.00 in
20:21 64.6 °F 46.6 °F 30.08 in NNE 5.0 mph 8.0 mph 52 % 0.00 in
20:26 64.6 °F 46.6 °F 30.08 in NNE 7.0 mph 10.0 mph 52 % 0.00 in
20:31 64.6 °F 46.6 °F 30.09 in NE 3.6 mph 9.2 mph 52 % 0.00 in
20:36 64.5 °F 46.5 °F 30.09 in NNE 5.0 mph 8.0 mph 52 % 0.00 in
20:41 64.5 °F 46.5 °F 30.09 in NNE 5.0 mph 12.0 mph 52 % 0.00 in
20:46 64.5 °F 46.5 °F 30.09 in NNE 6.0 mph 12.0 mph 52 % 0.00 in
20:51 64.5 °F 47.0 °F 30.10 in NNE 3.0 mph 12.0 mph 53 % 0.00 in
20:56 64.5 °F 46.5 °F 30.10 in NNE 5.0 mph 10.0 mph 52 % 0.00 in
21:01 64.4 °F 46.4 °F 30.09 in North 4.8 mph 6.9 mph 52 % 0.00 in
21:06 64.4 °F 47.4 °F 30.09 in NNE 4.6 mph 10.4 mph 54 % 0.00 in
21:11 64.4 °F 47.4 °F 30.10 in NNE 4.3 mph 6.9 mph 54 % 0.00 in
21:16 64.3 °F 47.3 °F 30.10 in North 6.2 mph 9.0 mph 54 % 0.00 in
21:21 64.3 °F 47.8 °F 30.10 in NNE 3.4 mph 9.2 mph 55 % 0.00 in
21:26 64.2 °F 47.7 °F 30.10 in NNE 4.0 mph 8.1 mph 55 % 0.00 in
21:31 64.1 °F 47.1 °F 30.10 in NNE 4.4 mph 7.0 mph 54 % 0.00 in
21:41 64.0 °F 47.0 °F 30.10 in North 4.2 mph 11.5 mph 54 % 0.00 in
21:47 63.9 °F 47.9 °F 30.11 in NNW 3.0 mph 6.9 mph 56 % 0.00 in
21:52 63.9 °F 47.9 °F 30.11 in NNE 5.3 mph 10.4 mph 56 % 0.00 in
21:57 63.8 °F 48.3 °F 30.11 in NNE 6.0 mph 9.2 mph 57 % 0.00 in
22:02 63.7 °F 49.1 °F 30.11 in North 6.0 mph 10.4 mph 59 % 0.00 in
22:07 63.7 °F 49.1 °F 30.11 in North 5.2 mph 6.9 mph 59 % 0.00 in
22:12 63.6 °F 49.0 °F 30.11 in NE 4.6 mph 8.0 mph 59 % 0.00 in
22:17 63.5 °F 49.4 °F 30.11 in North 5.9 mph 8.1 mph 60 % 0.00 in
22:22 63.4 °F 49.7 °F 30.11 in North 4.0 mph 6.9 mph 61 % 0.00 in
22:27 63.4 °F 49.7 °F 30.11 in NNW 4.8 mph 8.1 mph 61 % 0.00 in
22:32 63.4 °F 49.3 °F 30.11 in NNW 4.6 mph 6.9 mph 60 % 0.00 in
22:38 63.3 °F 48.7 °F 30.11 in North 5.5 mph 6.9 mph 59 % 0.00 in
22:43 63.3 °F 47.3 °F 30.11 in North 4.7 mph 11.5 mph 56 % 0.00 in
22:53 63.2 °F 46.3 °F 30.11 in NNW 7.5 mph 13.8 mph 54 % 0.00 in
22:58 63.3 °F 46.9 °F 30.11 in NNE 6.3 mph 9.2 mph 55 % 0.00 in
23:03 63.2 °F 46.8 °F 30.11 in NNE 3.3 mph 6.9 mph 55 % 0.00 in
23:08 63.1 °F 45.2 °F 30.11 in NNE 6.7 mph 12.7 mph 52 % 0.00 in
23:13 63.1 °F 45.7 °F 30.11 in NNE 9.2 mph 13.8 mph 53 % 0.00 in
23:18 63.0 °F 46.1 °F 30.11 in North 7.3 mph 16.1 mph 54 % 0.00 in
23:23 62.9 °F 45.5 °F 30.11 in NNE 5.5 mph 15.0 mph 53 % 0.00 in
23:29 62.9 °F 46.5 °F 30.11 in NE 6.3 mph 11.5 mph 55 % 0.00 in
23:34 62.8 °F 46.4 °F 30.11 in North 7.1 mph 12.7 mph 55 % 0.00 in
23:39 62.7 °F 46.3 °F 30.11 in NE 4.3 mph 6.9 mph 55 % 0.00 in
23:44 62.6 °F 47.1 °F 30.11 in NNE 7.8 mph 10.4 mph 57 % 0.00 in
23:49 62.5 °F 46.1 °F 30.11 in ENE 8.6 mph 13.8 mph 55 % 0.00 in
23:54 62.4 °F 45.5 °F 30.11 in NNE 5.0 mph 14.0 mph 54 % 0.00 in
23:59 62.3 °F 46.4 °F 30.11 in NNE 6.2 mph 8.1 mph 56 % 0.00 in
Crab Meadow Weather
Compliments of Weather Underground - 3 mb

Script developed by  Jim McMurry - jmcmurry@mwt.net Adapted for the template by  Wim van der Kuil - Leuven-Template.eu

Weather Terms: Warning - A warning is issued when a hazardous weather or hydrologic event is occurring, imminent or likely. A warning means weather conditions pose a threat to life or property. People in the path of the storm need to take protective action.